SBW2039 EHAM-LSZH

Flight info

Callsign SBW2039
Flight time 1h 8m
Altitude 35000
Route EDUPO Z739 MISGO DCT ASBON DCT TUSUK DCT LAMGO T721 RILAX
Aircraft A20N/M-SDE2E3FGHIRWXY/LB1

Departure

Time 2026-05-05 19:33
Airport Amsterdam Airport Schiphol (EHAM)

Arrival

Time 2026-05-05 20:42
Airport Zürich Airport (LSZH)
Time Latitude Longitude Altitude Speed Heading
2026-05-05 18:50 52.30472 4.76767 2 ft 0 kts 323°
2026-05-05 19:19 52.30468 4.76772 2 ft 2 kts 323°
2026-05-05 19:19 52.30460 4.76781 1 ft 1 kts 323°
2026-05-05 19:19 52.30449 4.76797 1 ft 2 kts 307°
2026-05-05 19:20 52.30441 4.76818 1 ft 2 kts 294°
2026-05-05 19:20 52.30436 4.76842 1 ft 2 kts 279°
2026-05-05 19:20 52.30435 4.76857 1 ft 2 kts 270°
2026-05-05 19:20 52.30437 4.76881 1 ft 2 kts 256°
2026-05-05 19:21 52.30442 4.76904 1 ft 1 kts 242°
2026-05-05 19:21 52.30445 4.76913 1 ft 1 kts 237°
2026-05-05 19:21 52.30446 4.76915 1 ft 0 kts 238°
2026-05-05 19:26 52.30440 4.76900 1 ft 4 kts 238°
2026-05-05 19:27 52.30410 4.76820 0 ft 11 kts 239°
2026-05-05 19:27 52.30356 4.76679 0 ft 17 kts 239°
2026-05-05 19:27 52.30282 4.76488 0 ft 21 kts 238°
2026-05-05 19:27 52.30196 4.76260 0 ft 25 kts 239°
2026-05-05 19:28 52.30098 4.76005 1 ft 27 kts 237°
2026-05-05 19:28 52.29992 4.75716 0 ft 31 kts 239°
2026-05-05 19:28 52.29874 4.75425 0 ft 21 kts 239°
2026-05-05 19:28 52.29847 4.75188 1 ft 23 kts 303°
2026-05-05 19:29 52.29963 4.74978 2 ft 26 kts 311°
2026-05-05 19:29 52.30088 4.74740 0 ft 29 kts 311°
2026-05-05 19:29 52.30237 4.74468 -7 ft 33 kts 315°
2026-05-05 19:29 52.30363 4.74224 -12 ft 9 kts 312°
2026-05-05 19:30 52.30374 4.74137 -13 ft 11 kts 250°
2026-05-05 19:30 52.30317 4.74022 -10 ft 14 kts 218°
2026-05-05 19:30 52.30224 4.73918 -12 ft 7 kts 216°
2026-05-05 19:30 52.30221 4.73914 -12 ft 0 kts 217°
2026-05-05 19:31 52.30219 4.73911 -12 ft 1 kts 218°
2026-05-05 19:32 52.30188 4.73838 -10 ft 14 kts 261°
2026-05-05 19:32 52.30237 4.73740 -8 ft 12 kts 358°
2026-05-05 19:32 52.30320 4.73746 -8 ft 24 kts
2026-05-05 19:32 52.30774 4.73792 -9 ft 104 kts
2026-05-05 19:33 52.31699 4.73871 106 ft 154 kts
2026-05-05 19:33 52.32789 4.73933 821 ft 159 kts
2026-05-05 19:33 52.33796 4.74324 1809 ft 149 kts 22°
2026-05-05 19:33 52.34754 4.74944 2471 ft 158 kts 24°
2026-05-05 19:34 52.35824 4.75652 3008 ft 175 kts 23°
2026-05-05 19:34 52.37006 4.76426 3488 ft 197 kts 27°
2026-05-05 19:34 52.38220 4.77682 4051 ft 217 kts 40°
2026-05-05 19:35 52.40519 4.81438 5316 ft 252 kts 46°
2026-05-05 19:35 52.41700 4.83614 5756 ft 259 kts 56°
2026-05-05 19:35 52.42369 4.86347 5901 ft 264 kts 79°
2026-05-05 19:35 52.42455 4.89332 5912 ft 265 kts 88°
2026-05-05 19:36 52.42439 4.92346 5914 ft 265 kts 89°
2026-05-05 19:36 52.42424 4.95353 5912 ft 265 kts 89°
2026-05-05 19:36 52.42085 4.98341 5895 ft 269 kts 113°
2026-05-05 19:36 52.40945 5.00752 5902 ft 274 kts 139°
2026-05-05 19:37 52.39534 5.02395 5910 ft 275 kts 143°
2026-05-05 19:37 52.37958 5.04143 5906 ft 275 kts 143°
2026-05-05 19:37 52.36568 5.05702 5907 ft 275 kts 143°
2026-05-05 19:38 52.35585 5.06818 5909 ft 275 kts 143°
2026-05-05 19:38 52.34371 5.08241 5906 ft 275 kts 140°
2026-05-05 19:38 52.33620 5.09245 5903 ft 274 kts 136°
2026-05-05 19:38 52.32260 5.11411 5899 ft 273 kts 130°
2026-05-05 19:39 52.30986 5.13711 5906 ft 273 kts 129°
2026-05-05 19:39 52.29729 5.16018 5909 ft 273 kts 129°
2026-05-05 19:39 52.28456 5.18349 5902 ft 273 kts 129°
2026-05-05 19:39 52.27420 5.20237 5887 ft 272 kts 129°
2026-05-05 19:40 52.26163 5.22524 5905 ft 272 kts 129°
2026-05-05 19:40 52.24910 5.24815 5906 ft 272 kts 128°
2026-05-05 19:40 52.23737 5.27249 5904 ft 271 kts 123°
2026-05-05 19:40 52.22648 5.29744 5899 ft 271 kts 122°
2026-05-05 19:41 52.21559 5.32264 5898 ft 271 kts 122°
2026-05-05 19:41 52.20475 5.34768 5892 ft 271 kts 122°
2026-05-05 19:41 52.19398 5.37255 5888 ft 271 kts 122°
2026-05-05 19:41 52.18307 5.39766 5887 ft 271 kts 122°
2026-05-05 19:42 52.17233 5.42235 5886 ft 271 kts 122°
2026-05-05 19:42 52.16146 5.44730 5880 ft 270 kts 122°
2026-05-05 19:42 52.15054 5.47233 5876 ft 270 kts 122°
2026-05-05 19:42 52.13966 5.49728 5871 ft 270 kts 122°
2026-05-05 19:43 52.12885 5.52204 5874 ft 270 kts 122°
2026-05-05 19:43 52.11788 5.54713 5875 ft 271 kts 122°
2026-05-05 19:43 52.10704 5.57189 5871 ft 271 kts 122°
2026-05-05 19:43 52.09615 5.59671 5865 ft 270 kts 122°
2026-05-05 19:44 52.08517 5.62172 5855 ft 270 kts 123°
2026-05-05 19:44 52.07432 5.64643 5865 ft 269 kts 122°
2026-05-05 19:44 52.06339 5.67099 5868 ft 270 kts 125°
2026-05-05 19:44 52.05147 5.69449 5865 ft 271 kts 128°
2026-05-05 19:45 52.03909 5.71770 5870 ft 272 kts 129°
2026-05-05 19:45 52.02660 5.74102 6206 ft 282 kts 129°
2026-05-05 19:45 52.01373 5.76505 7316 ft 281 kts 129°
2026-05-05 19:45 52.00122 5.78836 8391 ft 280 kts 129°
2026-05-05 19:46 51.98849 5.81205 9323 ft 285 kts 129°
2026-05-05 19:46 51.97542 5.83639 10218 ft 289 kts 129°
2026-05-05 19:46 51.96199 5.86145 10866 ft 303 kts 129°
2026-05-05 19:46 51.94793 5.88771 11326 ft 322 kts 129°
2026-05-05 19:47 51.93273 5.91608 11764 ft 340 kts 129°
2026-05-05 19:47 51.91697 5.94544 12240 ft 356 kts 129°
2026-05-05 19:47 51.90061 5.97587 12999 ft 361 kts 130°
2026-05-05 19:47 51.88411 6.00654 13812 ft 364 kts 130°
2026-05-05 19:48 51.86760 6.03720 14638 ft 367 kts 130°
2026-05-05 19:48 51.85072 6.06850 15394 ft 371 kts 130°
2026-05-05 19:48 51.83367 6.09990 16121 ft 374 kts 130°
2026-05-05 19:48 51.81652 6.13140 16850 ft 378 kts 130°
2026-05-05 19:49 51.79914 6.16324 17567 ft 381 kts 131°
2026-05-05 19:49 51.78753 6.18453 18011 ft 383 kts 131°
2026-05-05 19:49 51.76405 6.22746 18888 ft 387 kts 131°
2026-05-05 19:49 51.74633 6.25985 19520 ft 390 kts 131°
2026-05-05 19:50 51.72827 6.29283 20139 ft 394 kts 131°
2026-05-05 19:50 51.71016 6.32581 20750 ft 397 kts 132°
2026-05-05 19:50 51.69176 6.35928 21370 ft 400 kts 132°
2026-05-05 19:50 51.67327 6.39285 21977 ft 404 kts 132°
2026-05-05 19:51 51.65478 6.42637 22566 ft 407 kts 132°
2026-05-05 19:51 51.63596 6.46046 23152 ft 410 kts 132°
2026-05-05 19:51 51.61718 6.49445 23730 ft 413 kts 132°
2026-05-05 19:51 51.59790 6.52931 24308 ft 416 kts 133°
2026-05-05 19:52 51.57878 6.56383 24890 ft 418 kts 133°
2026-05-05 19:52 51.55960 6.59838 25444 ft 420 kts 133°
2026-05-05 19:52 51.54011 6.63345 25982 ft 423 kts 133°
2026-05-05 19:52 51.52055 6.66863 26500 ft 425 kts 133°
2026-05-05 19:53 51.50081 6.70409 27010 ft 427 kts 133°
2026-05-05 19:53 51.48105 6.73954 27496 ft 429 kts 133°
2026-05-05 19:53 51.46097 6.77548 27950 ft 432 kts 133°
2026-05-05 19:53 51.44112 6.81083 28385 ft 433 kts 134°
2026-05-05 19:54 51.41991 6.84510 28822 ft 433 kts 138°
2026-05-05 19:54 51.39718 6.87704 29206 ft 434 kts 142°
2026-05-05 19:54 51.37330 6.90609 29648 ft 432 kts 145°
2026-05-05 19:54 51.34847 6.93232 30127 ft 430 kts 148°
2026-05-05 19:55 51.32332 6.95770 30639 ft 427 kts 148°
2026-05-05 19:55 51.29855 6.98264 31082 ft 425 kts 148°
2026-05-05 19:55 51.27344 7.00791 31520 ft 422 kts 148°
2026-05-05 19:55 51.24882 7.03262 31952 ft 420 kts 148°
2026-05-05 19:56 51.22415 7.05738 32356 ft 418 kts 148°
2026-05-05 19:56 51.19979 7.08178 32752 ft 416 kts 148°
2026-05-05 19:56 51.17542 7.10617 33117 ft 415 kts 148°
2026-05-05 19:56 51.15093 7.13061 33444 ft 414 kts 148°
2026-05-05 19:57 51.12689 7.15458 33716 ft 414 kts 148°
2026-05-05 19:57 51.11056 7.17085 33873 ft 415 kts 148°
2026-05-05 19:57 51.07812 7.20310 34211 ft 415 kts 148°
2026-05-05 19:57 51.05343 7.22763 34453 ft 415 kts 148°
2026-05-05 19:58 51.02926 7.25162 34660 ft 416 kts 148°
2026-05-05 19:58 51.00481 7.27585 34778 ft 416 kts 148°
2026-05-05 19:58 50.98030 7.30011 34789 ft 416 kts 148°
2026-05-05 19:59 50.93109 7.34870 34785 ft 416 kts 148°
2026-05-05 19:59 50.88226 7.39683 34789 ft 416 kts 148°
2026-05-05 20:00 50.83318 7.44505 34785 ft 416 kts 148°
2026-05-05 20:00 50.78394 7.49332 34784 ft 416 kts 148°
2026-05-05 20:01 50.73489 7.54132 34790 ft 416 kts 148°
2026-05-05 20:01 50.68626 7.59051 34782 ft 418 kts 146°
2026-05-05 20:02 50.63812 7.64069 34791 ft 417 kts 146°
2026-05-05 20:02 50.58978 7.69078 34787 ft 417 kts 147°
2026-05-05 20:03 50.54147 7.74063 34792 ft 416 kts 147°
2026-05-05 20:03 50.49337 7.79014 34779 ft 417 kts 147°
2026-05-05 20:04 50.44488 7.83987 34780 ft 418 kts 147°
2026-05-05 20:04 50.39635 7.88954 34769 ft 417 kts 147°
2026-05-05 20:05 50.34772 7.93917 34771 ft 418 kts 147°
2026-05-05 20:05 50.29895 7.98882 34774 ft 419 kts 147°
2026-05-05 20:06 50.25040 8.03816 34779 ft 419 kts 146°
2026-05-05 20:06 50.20129 8.08791 34781 ft 420 kts 146°
2026-05-05 20:07 50.15126 8.13362 34789 ft 421 kts 151°
2026-05-05 20:07 50.09775 8.17168 34786 ft 422 kts 157°
2026-05-05 20:08 50.04252 8.20148 34793 ft 424 kts 160°
2026-05-05 20:08 49.98654 8.23025 34804 ft 424 kts 160°
2026-05-05 20:09 49.93001 8.25924 34802 ft 425 kts 160°
2026-05-05 20:09 49.87392 8.28783 34801 ft 425 kts 160°
2026-05-05 20:10 49.81730 8.31659 34800 ft 426 kts 160°
2026-05-05 20:10 49.76038 8.34543 34779 ft 426 kts 161°
2026-05-05 20:11 49.70391 8.37395 34804 ft 428 kts 161°
2026-05-05 20:11 49.64746 8.40236 34813 ft 427 kts 161°
2026-05-05 20:12 49.59103 8.43071 34795 ft 427 kts 161°
2026-05-05 20:12 49.53465 8.45898 34802 ft 428 kts 161°
2026-05-05 20:13 49.47799 8.48733 34806 ft 430 kts 161°
2026-05-05 20:13 49.42107 8.51573 34802 ft 430 kts 161°
2026-05-05 20:14 49.36438 8.54393 34800 ft 431 kts 161°
2026-05-05 20:14 49.30738 8.57221 34813 ft 432 kts 161°
2026-05-05 20:15 49.25011 8.60056 34798 ft 432 kts 161°
2026-05-05 20:15 49.19316 8.62871 34775 ft 434 kts 161°
2026-05-05 20:16 49.13544 8.65716 34781 ft 435 kts 162°
2026-05-05 20:16 49.07792 8.68545 34774 ft 435 kts 163°
2026-05-05 20:17 49.02011 8.71379 34789 ft 437 kts 163°
2026-05-05 20:17 48.96241 8.74200 34799 ft 436 kts 163°
2026-05-05 20:18 48.90446 8.76765 34802 ft 435 kts 171°
2026-05-05 20:18 48.84551 8.76891 34112 ft 419 kts 187°
2026-05-05 20:18 48.81694 8.76174 32953 ft 421 kts 189°
2026-05-05 20:19 48.78801 8.75382 31600 ft 426 kts 189°
2026-05-05 20:19 48.75899 8.74584 30052 ft 430 kts 189°
2026-05-05 20:19 48.73012 8.73799 28292 ft 433 kts 189°
2026-05-05 20:19 48.70074 8.73008 26817 ft 427 kts 190°
2026-05-05 20:20 48.67230 8.72245 25742 ft 414 kts 190°
2026-05-05 20:20 48.64434 8.71497 24537 ft 406 kts 190°
2026-05-05 20:20 48.61698 8.70766 23294 ft 399 kts 190°
2026-05-05 20:20 48.59023 8.70054 22089 ft 392 kts 191°
2026-05-05 20:21 48.56404 8.69358 20924 ft 385 kts 191°
2026-05-05 20:21 48.53782 8.68662 19763 ft 378 kts 191°
2026-05-05 20:21 48.51261 8.67992 18626 ft 372 kts 191°
2026-05-05 20:21 48.48741 8.67324 17482 ft 366 kts 192°
2026-05-05 20:22 48.46261 8.66668 16360 ft 361 kts 192°
2026-05-05 20:22 48.43839 8.66028 15385 ft 354 kts 192°
2026-05-05 20:22 48.41412 8.65384 15061 ft 354 kts 192°
2026-05-05 20:22 48.38994 8.64743 14806 ft 355 kts 193°
2026-05-05 20:23 48.36580 8.64074 14557 ft 353 kts 194°
2026-05-05 20:23 48.34174 8.63347 14307 ft 351 kts 194°
2026-05-05 20:23 48.31808 8.62621 14078 ft 352 kts 194°
2026-05-05 20:23 48.29355 8.61868 14315 ft 360 kts 194°
2026-05-05 20:24 48.26918 8.61126 14738 ft 356 kts 194°
2026-05-05 20:24 48.24519 8.60399 14849 ft 355 kts 194°
2026-05-05 20:24 48.22100 8.59671 14853 ft 354 kts 194°
2026-05-05 20:24 48.19675 8.58944 14854 ft 354 kts 194°
2026-05-05 20:25 48.17277 8.58224 14855 ft 354 kts 194°
2026-05-05 20:25 48.14854 8.57500 14857 ft 354 kts 194°
2026-05-05 20:25 48.12457 8.56785 14857 ft 354 kts 194°
2026-05-05 20:25 48.10050 8.56069 14857 ft 354 kts 194°
2026-05-05 20:26 48.07644 8.55353 14858 ft 354 kts 194°
2026-05-05 20:26 48.05208 8.54628 14859 ft 354 kts 194°
2026-05-05 20:26 48.02812 8.53915 14861 ft 354 kts 194°
2026-05-05 20:26 48.00388 8.53196 14862 ft 353 kts 194°
2026-05-05 20:27 47.97998 8.52488 14864 ft 353 kts 194°
2026-05-05 20:27 47.95551 8.51990 14863 ft 355 kts 187°
2026-05-05 20:27 47.93079 8.52005 14871 ft 357 kts 179°
2026-05-05 20:27 47.90606 8.52524 14864 ft 359 kts 173°
2026-05-05 20:28 47.88187 8.53260 14867 ft 360 kts 171°
2026-05-05 20:28 47.85728 8.54046 14877 ft 359 kts 171°
2026-05-05 20:28 47.83276 8.54828 14873 ft 359 kts 171°
2026-05-05 20:28 47.80853 8.55591 14880 ft 359 kts 171°
2026-05-05 20:29 47.78411 8.56356 14866 ft 359 kts 171°
2026-05-05 20:29 47.75953 8.57123 14872 ft 360 kts 171°
2026-05-05 20:29 47.73506 8.57886 14894 ft 360 kts 171°
2026-05-05 20:29 47.71069 8.58645 14879 ft 360 kts 171°
2026-05-05 20:30 47.68664 8.59805 14883 ft 365 kts 156°
2026-05-05 20:30 47.66593 8.61947 14791 ft 367 kts 140°
2026-05-05 20:30 47.64888 8.64792 14121 ft 372 kts 132°
2026-05-05 20:30 47.63288 8.67781 13199 ft 380 kts 131°
2026-05-05 20:31 47.61660 8.70854 12510 ft 379 kts 131°
2026-05-05 20:31 47.60024 8.73904 11928 ft 375 kts 131°
2026-05-05 20:31 47.58396 8.76899 11347 ft 371 kts 131°
2026-05-05 20:31 47.56804 8.79836 10886 ft 364 kts 129°
2026-05-05 20:32 47.55632 8.83083 10480 ft 361 kts 111°
2026-05-05 20:32 47.55155 8.86688 10192 ft 352 kts 99°
2026-05-05 20:32 47.54917 8.90193 10057 ft 338 kts 98°
2026-05-05 20:32 47.54695 8.93618 9904 ft 325 kts 98°
2026-05-05 20:33 47.54475 8.96852 9558 ft 317 kts 98°
2026-05-05 20:33 47.54246 9.00048 9163 ft 307 kts 98°
2026-05-05 20:33 47.53805 9.03043 8749 ft 289 kts 120°
2026-05-05 20:33 47.52546 9.05160 8373 ft 267 kts 152°
2026-05-05 20:34 47.50880 9.06029 8022 ft 249 kts 176°
2026-05-05 20:34 47.49207 9.05907 7697 ft 236 kts 188°
2026-05-05 20:34 47.47590 9.05592 7378 ft 232 kts 188°
2026-05-05 20:34 47.46009 9.05300 7071 ft 230 kts 187°
2026-05-05 20:35 47.44443 9.04843 6973 ft 229 kts 205°
2026-05-05 20:35 47.43225 9.03341 6985 ft 235 kts 236°
2026-05-05 20:35 47.42638 9.01099 6815 ft 241 kts 259°
2026-05-05 20:35 47.42587 8.98600 6597 ft 244 kts 273°
2026-05-05 20:36 47.42819 8.96132 6424 ft 244 kts 277°
2026-05-05 20:36 47.43084 8.93658 6283 ft 241 kts 276°
2026-05-05 20:36 47.43306 8.91241 6153 ft 238 kts 274°
2026-05-05 20:36 47.43494 8.88812 5946 ft 236 kts 274°
2026-05-05 20:37 47.43660 8.86413 5642 ft 236 kts 274°
2026-05-05 20:37 47.43765 8.84827 5411 ft 233 kts 273°
2026-05-05 20:37 47.43970 8.81710 4958 ft 221 kts 273°
2026-05-05 20:37 47.44112 8.79576 4635 ft 203 kts 273°
2026-05-05 20:38 47.44248 8.77531 4347 ft 198 kts 273°
2026-05-05 20:38 47.44383 8.75511 4092 ft 196 kts 274°
2026-05-05 20:38 47.44515 8.73585 3870 ft 182 kts 274°
2026-05-05 20:38 47.44638 8.71775 3578 ft 174 kts 274°
2026-05-05 20:39 47.44758 8.70027 3296 ft 167 kts 274°
2026-05-05 20:39 47.44871 8.68382 3064 ft 158 kts 274°
2026-05-05 20:39 47.44980 8.66811 2823 ft 147 kts 274°
2026-05-05 20:39 47.45079 8.65379 2604 ft 138 kts 274°
2026-05-05 20:40 47.45177 8.63958 2422 ft 137 kts 274°
2026-05-05 20:40 47.45273 8.62583 2233 ft 136 kts 274°
2026-05-05 20:40 47.45370 8.61196 2039 ft 135 kts 274°
2026-05-05 20:40 47.45459 8.59817 1835 ft 135 kts 276°
2026-05-05 20:41 47.45567 8.58454 1667 ft 134 kts 276°
2026-05-05 20:41 47.45664 8.57075 1463 ft 134 kts 276°
2026-05-05 20:41 47.45751 8.55799 1396 ft 110 kts 275°
2026-05-05 20:41 47.45811 8.54921 1382 ft 64 kts 276°
2026-05-05 20:42 47.45810 8.54491 1384 ft 32 kts 253°
2026-05-05 20:42 47.45757 8.54271 1388 ft 13 kts 240°
2026-05-05 20:42 47.45684 8.54199 1390 ft 12 kts 184°
2026-05-05 20:42 47.45615 8.54254 1390 ft 12 kts 114°
2026-05-05 20:43 47.45588 8.54377 1390 ft 12 kts 106°
2026-05-05 20:43 47.45562 8.54508 1389 ft 14 kts 108°
2026-05-05 20:43 47.45528 8.54661 1386 ft 16 kts 109°
2026-05-05 20:43 47.45501 8.54782 1385 ft 0 kts 108°
2026-05-05 20:44 47.45495 8.54810 1384 ft 5 kts 108°
2026-05-05 20:44 47.45493 8.54817 1384 ft 0 kts 108°
2026-05-05 20:44 47.45491 8.54829 1384 ft 3 kts 108°
2026-05-05 20:44 47.45482 8.54869 1384 ft 4 kts 108°
2026-05-05 20:45 47.45457 8.54980 1384 ft 6 kts 110°
2026-05-05 20:45 47.45438 8.55053 1384 ft 8 kts 112°
2026-05-05 20:45 47.45413 8.55152 1386 ft 11 kts 110°
2026-05-05 20:46 47.45383 8.55274 1389 ft 13 kts 110°
2026-05-05 20:46 47.45336 8.55402 1390 ft 15 kts 121°
2026-05-05 20:46 47.45286 8.55537 1393 ft 10 kts 116°
2026-05-05 20:46 47.45271 8.55639 1395 ft 9 kts 96°
2026-05-05 20:47 47.45265 8.55731 1398 ft 7 kts 96°
2026-05-05 20:47 47.45260 8.55805 1399 ft 7 kts 97°
2026-05-05 20:47 47.45256 8.55856 1401 ft 1 kts 96°
2026-05-05 20:47 47.45256 8.55858 1401 ft 0 kts 92°
2026-05-05 20:48 47.45252 8.55872 1401 ft 2 kts 120°
2026-05-05 20:48 47.45232 8.55902 1402 ft 5 kts 159°
2026-05-05 20:48 47.45179 8.55900 1402 ft 6 kts 187°
2026-05-05 20:48 47.45166 8.55898 1402 ft 0 kts 187°